Tracking 30990 objects as of 9-Jul-2025
HD Live streaming from Space Station
objects crossing your sky now

STARLINK-11511

Track STARLINK-11511 now!
10-day predictions
STARLINK-11511 is classified as:


NORAD ID: 62468
Int'l Code: 2024-254G
Perigee: 363.0 km
Apogee: 364.0 km
Inclination: 43.0 °
Period: 91.7 minutes
Semi major axis: 6734 km
RCS: Unknown
Launch date: December 31, 2024
Source: United States (US)
Launch site: AIR FORCE EASTERN TEST RANGE (AFETR)
Your satellite tracking list
Your tracking list is empty




NASA's NSSDC Master Catalog

Two Line Element Set (TLE):
1 62468U 24254G   25189.86479520  .00140658  00000-0  10793-2 0  9995
2 62468  42.9989 252.7017 0000764 234.7546 125.3250 15.70882576 31057
Source of the keplerian elements: AFSPC